| time (UTC) | temp C | wind direction | speed KPH | gust KPH | rain 1hr cm | rain 24hr cm | rain mn cm | humidity % | barometer mb |
| 20260506174845 | 11 | 130 | 11.3 | 0.0 | 0.00 | 0.00 | 0.00 | 88 | 1016.0 |
| 20260506173344 | 11 | 130 | 11.3 | 0.0 | 0.00 | 0.00 | 0.00 | 88 | 1016.0 |
| 20260506171845 | 13 | 150 | 12.9 | 0.0 | 0.00 | 0.00 | 0.00 | 77 | 1016.0 |
| 20260506170344 | 13 | 150 | 12.9 | 0.0 | 0.00 | 0.00 | 0.00 | 77 | 1016.0 |
| 20260506164844 | 16 | 140 | 11.3 | 0.0 | 0.00 | 0.00 | 0.00 | 68 | 1016.0 |
| 20260506163344 | 16 | 140 | 11.3 | 0.0 | 0.00 | 0.00 | 0.00 | 68 | 1016.0 |
| 20260506161845 | 17 | 140 | 14.5 | 0.0 | 0.00 | 0.00 | 0.00 | 59 | 1016.0 |
| 20260506160344 | 17 | 140 | 14.5 | 0.0 | 0.00 | 0.00 | 0.00 | 59 | 1016.0 |
| 20260506154845 | 17 | 140 | 16.1 | 0.0 | 0.00 | 0.00 | 0.00 | 52 | 1016.0 |
| 20260506153344 | 17 | 140 | 16.1 | 0.0 | 0.00 | 0.00 | 0.00 | 52 | 1016.0 |
| 20260506151844 | 18 | 150 | 17.7 | 0.0 | 0.00 | 0.00 | 0.00 | 49 | 1016.0 |
| 20260506150350 | 18 | 150 | 17.7 | 0.0 | 0.00 | 0.00 | 0.00 | 49 | 1016.0 |
| 20260506144844 | 18 | 160 | 22.5 | 0.0 | 0.00 | 0.00 | 0.00 | 49 | 1016.0 |
| 20260506143356 | 18 | 160 | 22.5 | 0.0 | 0.00 | 0.00 | 0.00 | 49 | 1016.0 |
| 20260506141844 | 18 | 150 | 20.9 | 0.0 | 0.00 | 0.00 | 0.00 | 52 | 1016.0 |
| 20260506140505 | 18 | 150 | 20.9 | 0.0 | 0.00 | 0.00 | 0.00 | 52 | 1016.0 |
| 20260506134909 | 20 | 150 | 22.5 | 0.0 | 0.00 | 0.00 | 0.00 | 46 | 1016.0 |
| 20260506133344 | 20 | 150 | 22.5 | 0.0 | 0.00 | 0.00 | 0.00 | 46 | 1016.0 |
| 20260506131844 | 20 | 150 | 20.9 | 0.0 | 0.00 | 0.00 | 0.00 | 43 | 1016.0 |
| 20260506130353 | 20 | 150 | 20.9 | 0.0 | 0.00 | 0.00 | 0.00 | 43 | 1016.0 |
| 20260506124845 | 20 | 140 | 20.9 | 0.0 | 0.00 | 0.00 | 0.00 | 40 | 1016.0 |
| 20260506123344 | 20 | 140 | 20.9 | 0.0 | 0.00 | 0.00 | 0.00 | 40 | 1016.0 |
| 20260506121845 | 20 | 150 | 20.9 | 0.0 | 0.00 | 0.00 | 0.00 | 43 | 1016.0 |
| 20260506120344 | 20 | 150 | 20.9 | 0.0 | 0.00 | 0.00 | 0.00 | 43 | 1016.0 |
| 20260506114844 | 20 | 140 | 20.9 | 0.0 | 0.00 | 0.00 | 0.00 | 46 | 1016.0 |
| 20260506113345 | 20 | 140 | 20.9 | 0.0 | 0.00 | 0.00 | 0.00 | 46 | 1016.0 |
| 20260506111844 | 20 | 160 | 20.9 | 0.0 | 0.00 | 0.00 | 0.00 | 46 | 1017.0 |
| 20260506110344 | 20 | 160 | 20.9 | 0.0 | 0.00 | 0.00 | 0.00 | 46 | 1017.0 |
| 20260506104844 | 20 | 160 | 20.9 | 0.0 | 0.00 | 0.00 | 0.00 | 46 | 1017.0 |
| 20260506103344 | 20 | 160 | 20.9 | 0.0 | 0.00 | 0.00 | 0.00 | 46 | 1017.0 |
| 20260506101845 | 20 | 150 | 17.7 | 0.0 | 0.00 | 0.00 | 0.00 | 46 | 1016.0 |
| 20260506100344 | 20 | 150 | 17.7 | 0.0 | 0.00 | 0.00 | 0.00 | 46 | 1016.0 |
| 20260506094844 | 20 | 150 | 17.7 | 0.0 | 0.00 | 0.00 | 0.00 | 43 | 1017.0 |
| 20260506093344 | 20 | 150 | 17.7 | 0.0 | 0.00 | 0.00 | 0.00 | 43 | 1017.0 |
| 20260506091844 | 18 | 140 | 22.5 | 0.0 | 0.00 | 0.00 | 0.00 | 46 | 1016.0 |
| 20260506090344 | 18 | 140 | 22.5 | 0.0 | 0.00 | 0.00 | 0.00 | 46 | 1016.0 |
| 20260506084844 | 20 | 140 | 17.7 | 0.0 | 0.00 | 0.00 | 0.00 | 43 | 1016.0 |
| 20260506083344 | 20 | 140 | 17.7 | 0.0 | 0.00 | 0.00 | 0.00 | 43 | 1016.0 |
| 20260506081841 | 18 | 130 | 16.1 | 0.0 | 0.00 | 0.00 | 0.00 | 52 | 1016.0 |
| 20260506080344 | 18 | 130 | 16.1 | 0.0 | 0.00 | 0.00 | 0.00 | 52 | 1016.0 |
| 20260506073344 | 18 | 160 | 11.3 | 0.0 | 0.00 | 0.00 | 0.00 | 46 | 1016.0 |
| 20260506071844 | 17 | 150 | 9.7 | 0.0 | 0.00 | 0.00 | 0.00 | 43 | 1016.0 |
| 20260506070344 | 17 | 150 | 9.7 | 0.0 | 0.00 | 0.00 | 0.00 | 43 | 1016.0 |
| 20260506061845 | 12 | 3.2 | 0.0 | 0.00 | 0.00 | 0.00 | 67 | 1016.0 | |
| 20260506060346 | 12 | 3.2 | 0.0 | 0.00 | 0.00 | 0.00 | 67 | 1016.0 | |
| 20260506050358 | 8 | 50 | 3.2 | 0.0 | 0.00 | 0.00 | 0.00 | 76 | 1016.0 |
| 20260506044900 | 8 | 1.6 | 0.0 | 0.00 | 0.00 | 0.00 | 71 | 1015.0 | |
| 20260506043348 | 8 | 1.6 | 0.0 | 0.00 | 0.00 | 0.00 | 71 | 1015.0 | |
| 20260506041845 | 6 | 10 | 4.8 | 0.0 | 0.00 | 0.00 | 0.00 | 87 | 1015.0 |
| 20260506040344 | 6 | 10 | 4.8 | 0.0 | 0.00 | 0.00 | 0.00 | 87 | 1015.0 |
| 20260506034845 | 5 | 1.6 | 0.0 | 0.00 | 0.00 | 0.00 | 81 | 1015.0 | |
| 20260506033344 | 5 | 1.6 | 0.0 | 0.00 | 0.00 | 0.00 | 81 | 1015.0 | |
| 20260506031844 | 5 | 240 | 8.0 | 0.0 | 0.00 | 0.00 | 0.00 | 81 | 1015.0 |
| 20260506030344 | 5 | 240 | 8.0 | 0.0 | 0.00 | 0.00 | 0.00 | 81 | 1015.0 |
| 20260506024844 | 6 | 3.2 | 0.0 | 0.00 | 0.00 | 0.00 | 76 | 1015.0 | |
| 20260506023344 | 6 | 3.2 | 0.0 | 0.00 | 0.00 | 0.00 | 76 | 1015.0 | |
| 20260506020344 | 7 | 240 | 4.8 | 0.0 | 0.00 | 0.00 | 0.00 | 71 | 1015.0 |
| 20260506014844 | 5 | 0 | 0.0 | 0.0 | 0.00 | 0.00 | 0.00 | 81 | 1015.0 |
| 20260506013344 | 5 | 0 | 0.0 | 0.0 | 0.00 | 0.00 | 0.00 | 81 | 1015.0 |
| 20260506011845 | 7 | 1.6 | 0.0 | 0.00 | 0.00 | 0.00 | 76 | 1015.0 | |
| 20260506010344 | 7 | 1.6 | 0.0 | 0.00 | 0.00 | 0.00 | 76 | 1015.0 | |
| 20260506003506 | 7 | 0 | 0.0 | 0.0 | 0.00 | 0.00 | 0.00 | 76 | 1015.0 |
| 20260506001845 | 7 | 10 | 1.6 | 0.0 | 0.00 | 0.00 | 0.00 | 82 | 1015.0 |
| 20260506000346 | 7 | 10 | 1.6 | 0.0 | 0.00 | 0.00 | 0.00 | 82 | 1015.0 |
| 20260505234844 | 7 | 60 | 4.8 | 0.0 | 0.00 | 0.00 | 0.00 | 87 | 1015.0 |
| 20260505233344 | 7 | 60 | 4.8 | 0.0 | 0.00 | 0.00 | 0.00 | 87 | 1015.0 |
| 20260505231844 | 7 | 40 | 4.8 | 0.0 | 0.00 | 0.00 | 0.00 | 87 | 1015.0 |
| 20260505230345 | 7 | 40 | 4.8 | 0.0 | 0.00 | 0.00 | 0.00 | 87 | 1015.0 |
| 20260505224845 | 7 | 20 | 8.0 | 0.0 | 0.00 | 0.00 | 0.00 | 87 | 1015.0 |
| 20260505223344 | 7 | 20 | 8.0 | 0.0 | 0.00 | 0.00 | 0.00 | 87 | 1015.0 |
| 20260505221842 | 7 | 3.2 | 0.0 | 0.00 | 0.00 | 0.00 | 82 | 1016.0 | |
| 20260505220344 | 7 | 3.2 | 0.0 | 0.00 | 0.00 | 0.00 | 82 | 1016.0 | |
| 20260505214845 | 7 | 50 | 3.2 | 0.0 | 0.00 | 0.00 | 0.00 | 87 | 1016.0 |
| 20260505213344 | 7 | 50 | 3.2 | 0.0 | 0.00 | 0.00 | 0.00 | 87 | 1016.0 |
| 20260505211844 | 8 | 0 | 0.0 | 0.0 | 0.00 | 0.00 | 0.00 | 87 | 1016.0 |
| 20260505210344 | 8 | 0 | 0.0 | 0.0 | 0.00 | 0.00 | 0.00 | 87 | 1016.0 |
| 20260505204846 | 7 | 1.6 | 0.0 | 0.00 | 0.00 | 0.00 | 93 | 1016.0 | |
| 20260505203344 | 7 | 1.6 | 0.0 | 0.00 | 0.00 | 0.00 | 93 | 1016.0 | |
| 20260505201915 | 8 | 1.6 | 0.0 | 0.00 | 0.00 | 0.00 | 82 | 1016.0 | |
| 20260505200345 | 8 | 1.6 | 0.0 | 0.00 | 0.00 | 0.00 | 82 | 1016.0 | |
| 20260505194844 | 8 | 180 | 4.8 | 0.0 | 0.00 | 0.00 | 0.00 | 87 | 1016.0 |
| 20260505193344 | 8 | 180 | 4.8 | 0.0 | 0.00 | 0.00 | 0.00 | 87 | 1016.0 |
| 20260505191844 | 8 | 170 | 4.8 | 0.0 | 0.00 | 0.00 | 0.00 | 82 | 1016.0 |
| 20260505190344 | 8 | 170 | 4.8 | 0.0 | 0.00 | 0.00 | 0.00 | 82 | 1016.0 |
| 20260505184845 | 8 | 170 | 4.8 | 0.0 | 0.00 | 0.00 | 0.00 | 82 | 1016.0 |
| 20260505183345 | 8 | 170 | 4.8 | 0.0 | 0.00 | 0.00 | 0.00 | 82 | 1016.0 |
| 20260505181845 | 10 | 140 | 8.0 | 0.0 | 0.00 | 0.00 | 0.00 | 82 | 1015.0 |
| 20260505180345 | 10 | 140 | 8.0 | 0.0 | 0.00 | 0.00 | 0.00 | 82 | 1015.0 |